Year,Month,Day,Hour,Minute,Value (Times are PST for temperature in C)
2019,07,09,00,00,23.10
2019,07,09,00,01,23.00
2019,07,09,00,02,23.00
2019,07,09,00,03,22.90
2019,07,09,00,04,22.80
2019,07,09,00,05,22.80
2019,07,09,00,06,22.80
2019,07,09,00,07,22.80
2019,07,09,00,08,22.80
2019,07,09,00,09,22.90
2019,07,09,00,10,22.90
2019,07,09,00,11,22.90
2019,07,09,00,12,22.90
2019,07,09,00,13,22.90
2019,07,09,00,14,22.90
2019,07,09,00,15,23.00
2019,07,09,00,16,23.00
2019,07,09,00,17,22.90
2019,07,09,00,18,22.90
2019,07,09,00,19,22.90
2019,07,09,00,20,22.90
2019,07,09,00,21,22.90
2019,07,09,00,22,22.90
2019,07,09,00,23,22.90
2019,07,09,00,24,22.90
2019,07,09,00,25,22.80
2019,07,09,00,26,22.80
2019,07,09,00,27,22.80
2019,07,09,00,28,22.70
2019,07,09,00,29,22.60
2019,07,09,00,30,22.50
2019,07,09,00,31,22.50
2019,07,09,00,32,22.40
2019,07,09,00,33,22.40
2019,07,09,00,34,22.40
2019,07,09,00,35,22.40
2019,07,09,00,36,22.40
2019,07,09,00,37,22.40
2019,07,09,00,38,22.40
2019,07,09,00,39,22.30
2019,07,09,00,40,22.20
2019,07,09,00,41,22.10
2019,07,09,00,42,22.00
2019,07,09,00,43,21.90
2019,07,09,00,44,21.80
2019,07,09,00,45,21.60
2019,07,09,00,46,21.50
2019,07,09,00,47,21.40
2019,07,09,00,48,21.30
2019,07,09,00,49,21.20
2019,07,09,00,50,21.10
2019,07,09,00,51,21.00
2019,07,09,00,52,20.90
2019,07,09,00,53,20.80
2019,07,09,00,54,20.70
2019,07,09,00,55,20.60
2019,07,09,00,56,20.50
2019,07,09,00,57,20.40
2019,07,09,00,58,20.40
2019,07,09,00,59,20.30
2019,07,09,01,00,20.20
2019,07,09,01,01,20.20
2019,07,09,01,02,20.10
2019,07,09,01,03,20.00
2019,07,09,01,04,20.00
2019,07,09,01,05,19.90
2019,07,09,01,06,19.80
2019,07,09,01,07,19.80
2019,07,09,01,08,19.80
2019,07,09,01,09,19.90
2019,07,09,01,10,19.80
2019,07,09,01,11,19.80
2019,07,09,01,12,19.70
2019,07,09,01,13,19.60
2019,07,09,01,14,19.60
2019,07,09,01,15,19.50
2019,07,09,01,16,19.40
2019,07,09,01,17,19.30
2019,07,09,01,18,19.30
2019,07,09,01,19,19.30
2019,07,09,01,20,19.20
2019,07,09,01,21,19.20
2019,07,09,01,22,19.20
2019,07,09,01,23,19.10
2019,07,09,01,24,19.10
2019,07,09,01,25,19.10
2019,07,09,01,26,19.10
2019,07,09,01,27,19.00
2019,07,09,01,28,19.00
2019,07,09,01,29,18.90
2019,07,09,01,30,18.90
2019,07,09,01,31,18.90
2019,07,09,01,32,18.80
2019,07,09,01,33,18.80
2019,07,09,01,34,18.70
2019,07,09,01,35,18.70
2019,07,09,01,36,18.60
2019,07,09,01,37,18.60
2019,07,09,01,38,18.50
2019,07,09,01,39,18.50
2019,07,09,01,40,18.40
2019,07,09,01,41,18.30
2019,07,09,01,42,18.30
2019,07,09,01,43,18.20
2019,07,09,01,44,18.10
2019,07,09,01,45,18.10
2019,07,09,01,46,18.00
2019,07,09,01,47,17.90
2019,07,09,01,48,17.80
2019,07,09,01,49,17.80
2019,07,09,01,50,17.70
2019,07,09,01,51,17.60
2019,07,09,01,52,17.60
2019,07,09,01,53,17.50
2019,07,09,01,54,17.50
2019,07,09,01,55,17.40
2019,07,09,01,56,17.40
2019,07,09,01,57,17.40
2019,07,09,01,58,17.30
2019,07,09,01,59,17.30
2019,07,09,02,00,17.30
2019,07,09,02,01,17.20
2019,07,09,02,02,17.20
2019,07,09,02,03,17.20
2019,07,09,02,04,17.20
2019,07,09,02,05,17.10
2019,07,09,02,06,17.10
2019,07,09,02,07,17.10
2019,07,09,02,08,17.10
2019,07,09,02,09,17.10
2019,07,09,02,10,17.10
2019,07,09,02,11,17.10
2019,07,09,02,12,17.00
2019,07,09,02,13,17.00
2019,07,09,02,14,17.00
2019,07,09,02,15,16.90
2019,07,09,02,16,16.90
2019,07,09,02,17,16.90
2019,07,09,02,18,16.90
2019,07,09,02,19,16.80
2019,07,09,02,20,16.80
2019,07,09,02,21,16.80
2019,07,09,02,22,16.80
2019,07,09,02,23,16.80
2019,07,09,02,24,16.80
2019,07,09,02,25,16.80
2019,07,09,02,26,16.70
2019,07,09,02,27,16.70
2019,07,09,02,28,16.70
2019,07,09,02,29,16.60
2019,07,09,02,30,16.60
2019,07,09,02,31,16.50
2019,07,09,02,32,16.40
2019,07,09,02,33,16.30
2019,07,09,02,34,16.30
2019,07,09,02,35,16.20
2019,07,09,02,36,16.10
2019,07,09,02,37,16.00
2019,07,09,02,38,16.00
2019,07,09,02,39,15.90
2019,07,09,02,40,15.90
2019,07,09,02,41,15.80
2019,07,09,02,42,15.80
2019,07,09,02,43,15.80
2019,07,09,02,44,15.70
2019,07,09,02,45,15.70
2019,07,09,02,46,15.60
2019,07,09,02,47,15.60
2019,07,09,02,48,15.50
2019,07,09,02,49,15.50
2019,07,09,02,50,15.40
2019,07,09,02,51,15.40
2019,07,09,02,52,15.40
2019,07,09,02,53,15.30
2019,07,09,02,54,15.30
2019,07,09,02,55,15.30
2019,07,09,02,56,15.20
2019,07,09,02,57,15.20
2019,07,09,02,58,15.10
2019,07,09,02,59,15.10
2019,07,09,03,00,15.10
2019,07,09,03,01,15.00
2019,07,09,03,02,15.00
2019,07,09,03,03,14.90
2019,07,09,03,04,14.90
2019,07,09,03,05,14.90
2019,07,09,03,06,14.80
2019,07,09,03,07,14.80
2019,07,09,03,08,14.80
2019,07,09,03,09,14.80
2019,07,09,03,10,14.80
2019,07,09,03,11,14.80
2019,07,09,03,12,14.80
2019,07,09,03,13,14.70
2019,07,09,03,14,14.70
2019,07,09,03,15,14.70
2019,07,09,03,16,14.70
2019,07,09,03,17,14.60
2019,07,09,03,18,14.60
2019,07,09,03,19,14.60
2019,07,09,03,20,14.50
2019,07,09,03,21,14.50
2019,07,09,03,22,14.40
2019,07,09,03,23,14.40
2019,07,09,03,24,14.40
2019,07,09,03,25,14.30
2019,07,09,03,26,14.30
2019,07,09,03,27,14.30
2019,07,09,03,28,14.30
2019,07,09,03,29,14.20
2019,07,09,03,30,14.20
2019,07,09,03,31,14.20
2019,07,09,03,32,14.20
2019,07,09,03,33,14.10
2019,07,09,03,34,14.10
2019,07,09,03,35,14.00
2019,07,09,03,36,14.00
2019,07,09,03,37,13.90
2019,07,09,03,38,13.90
2019,07,09,03,39,13.90
2019,07,09,03,40,13.80
2019,07,09,03,41,13.80
2019,07,09,03,42,13.80
2019,07,09,03,43,13.80
2019,07,09,03,44,13.70
2019,07,09,03,45,13.70
2019,07,09,03,46,13.70
2019,07,09,03,47,13.70
2019,07,09,03,48,13.60
2019,07,09,03,49,13.60
2019,07,09,03,50,13.60
2019,07,09,03,51,13.50
2019,07,09,03,52,13.50
2019,07,09,03,53,13.40
2019,07,09,03,54,13.40
2019,07,09,03,55,13.40
2019,07,09,03,56,13.40
2019,07,09,03,57,13.30
2019,07,09,03,58,13.30
2019,07,09,03,59,13.30
2019,07,09,04,00,13.30
2019,07,09,04,01,13.20
2019,07,09,04,02,13.20
2019,07,09,04,03,13.20
2019,07,09,04,04,13.20
2019,07,09,04,05,13.20
2019,07,09,04,06,13.20
2019,07,09,04,07,13.20
2019,07,09,04,08,13.10
2019,07,09,04,09,13.10
2019,07,09,04,10,13.10
2019,07,09,04,11,13.10
2019,07,09,04,12,13.00
2019,07,09,04,13,13.00
2019,07,09,04,14,13.00
2019,07,09,04,15,12.90
2019,07,09,04,16,12.90
2019,07,09,04,17,12.90
2019,07,09,04,18,12.80
2019,07,09,04,19,12.80
2019,07,09,04,20,12.80
2019,07,09,04,21,12.80
2019,07,09,04,22,12.70
2019,07,09,04,23,12.70
2019,07,09,04,24,12.70
2019,07,09,04,25,12.70
2019,07,09,04,26,12.60
2019,07,09,04,27,12.60
2019,07,09,04,28,12.60
2019,07,09,04,29,12.60
2019,07,09,04,30,12.50
2019,07,09,04,31,12.50
2019,07,09,04,32,12.50
2019,07,09,04,33,12.50
2019,07,09,04,34,12.50
2019,07,09,04,35,12.40
2019,07,09,04,36,12.40
2019,07,09,04,37,12.40
2019,07,09,04,38,12.40
2019,07,09,04,39,12.30
2019,07,09,04,40,12.30
2019,07,09,04,41,12.30
2019,07,09,04,42,12.30
2019,07,09,04,43,12.20
2019,07,09,04,44,12.20
2019,07,09,04,45,12.20
2019,07,09,04,46,12.20
2019,07,09,04,47,12.10
2019,07,09,04,48,12.10
2019,07,09,04,49,12.10
2019,07,09,04,50,12.10
2019,07,09,04,51,12.10
2019,07,09,04,52,12.00
2019,07,09,04,53,12.00
2019,07,09,04,54,12.00
2019,07,09,04,55,12.00
2019,07,09,04,56,11.90
2019,07,09,04,57,11.90
2019,07,09,04,58,11.90
2019,07,09,04,59,11.90
2019,07,09,05,00,11.80
2019,07,09,05,01,11.80
2019,07,09,05,02,11.80
2019,07,09,05,03,11.80
2019,07,09,05,04,11.80
2019,07,09,05,05,11.80
2019,07,09,05,06,11.70
2019,07,09,05,07,11.70
2019,07,09,05,08,11.70
2019,07,09,05,09,11.70
2019,07,09,05,10,11.70
2019,07,09,05,11,11.70
2019,07,09,05,12,11.70
2019,07,09,05,13,11.70
2019,07,09,05,14,11.70
2019,07,09,05,15,11.70
2019,07,09,05,16,11.70
2019,07,09,05,17,11.70
2019,07,09,05,18,11.70
2019,07,09,05,19,11.70
2019,07,09,05,20,11.70
2019,07,09,05,21,11.70
2019,07,09,05,22,11.70
2019,07,09,05,23,11.70
2019,07,09,05,24,11.70
2019,07,09,05,25,11.70
2019,07,09,05,26,11.70
2019,07,09,05,27,11.70
2019,07,09,05,28,11.60
2019,07,09,05,29,11.60
2019,07,09,05,30,11.60
2019,07,09,05,31,11.60
2019,07,09,05,32,11.60
2019,07,09,05,33,11.60
2019,07,09,05,34,11.60
2019,07,09,05,35,11.50
2019,07,09,05,36,11.50
2019,07,09,05,37,11.50
2019,07,09,05,38,11.40
2019,07,09,05,39,11.40
2019,07,09,05,40,11.40
2019,07,09,05,41,11.40
2019,07,09,05,42,11.40
2019,07,09,05,43,11.40
2019,07,09,05,44,11.40
2019,07,09,05,45,11.40
2019,07,09,05,46,11.40
2019,07,09,05,47,11.40
2019,07,09,05,48,11.40
2019,07,09,05,49,11.40
2019,07,09,05,50,11.40
2019,07,09,05,51,11.30
2019,07,09,05,52,11.30
2019,07,09,05,53,11.30
2019,07,09,05,54,11.30
2019,07,09,05,55,11.30
2019,07,09,05,56,11.30
2019,07,09,05,57,11.30
2019,07,09,05,58,11.30
2019,07,09,05,59,11.30
2019,07,09,06,00,11.30
2019,07,09,06,01,11.30
2019,07,09,06,02,11.30
2019,07,09,06,03,11.30
2019,07,09,06,04,11.30
2019,07,09,06,05,11.30
2019,07,09,06,06,11.20
2019,07,09,06,07,11.20
2019,07,09,06,08,11.20
2019,07,09,06,09,11.20
2019,07,09,06,10,11.20
2019,07,09,06,11,11.20
2019,07,09,06,12,11.20
2019,07,09,06,13,11.20
2019,07,09,06,14,11.20
2019,07,09,06,15,11.20
2019,07,09,06,16,11.20
2019,07,09,06,17,11.20
2019,07,09,06,18,11.20
2019,07,09,06,19,11.20
2019,07,09,06,20,11.20
2019,07,09,06,21,11.20
2019,07,09,06,22,11.20
2019,07,09,06,23,11.10
2019,07,09,06,24,11.10
2019,07,09,06,25,11.10
2019,07,09,06,26,11.10
2019,07,09,06,27,11.10
2019,07,09,06,28,11.10
2019,07,09,06,29,11.10
2019,07,09,06,30,11.10
2019,07,09,06,31,11.10
2019,07,09,06,32,11.10
2019,07,09,06,33,11.10
2019,07,09,06,34,11.10
2019,07,09,06,35,11.10
2019,07,09,06,36,11.10
2019,07,09,06,37,11.10
2019,07,09,06,38,11.10
2019,07,09,06,39,11.10
2019,07,09,06,40,11.10
2019,07,09,06,41,11.10
2019,07,09,06,42,11.10
2019,07,09,06,43,11.10
2019,07,09,06,44,11.10
2019,07,09,06,45,11.10
2019,07,09,06,46,11.20
2019,07,09,06,47,11.20
2019,07,09,06,48,11.20
2019,07,09,06,49,11.20
2019,07,09,06,50,11.20
2019,07,09,06,51,11.20
2019,07,09,06,52,11.20
2019,07,09,06,53,11.20
2019,07,09,06,54,11.20
2019,07,09,06,55,11.20
2019,07,09,06,56,11.20
2019,07,09,06,57,11.20
2019,07,09,06,58,11.20
2019,07,09,06,59,11.20
2019,07,09,07,00,11.20
2019,07,09,07,01,11.20
2019,07,09,07,02,11.20
2019,07,09,07,03,11.10
2019,07,09,07,04,11.20
2019,07,09,07,05,11.20
2019,07,09,07,06,11.20
2019,07,09,07,07,11.20
2019,07,09,07,08,11.20
2019,07,09,07,09,11.20
2019,07,09,07,10,11.20
2019,07,09,07,11,11.20
2019,07,09,07,12,11.20
2019,07,09,07,13,11.20
2019,07,09,07,14,11.20
2019,07,09,07,15,11.20
2019,07,09,07,16,11.30
2019,07,09,07,17,11.30
2019,07,09,07,18,11.30
2019,07,09,07,19,11.30
2019,07,09,07,20,11.30
2019,07,09,07,21,11.30
2019,07,09,07,22,11.30
2019,07,09,07,23,11.30
2019,07,09,07,24,11.30
2019,07,09,07,25,11.30
2019,07,09,07,26,11.30
2019,07,09,07,27,11.30
2019,07,09,07,28,11.30
2019,07,09,07,29,11.40
2019,07,09,07,30,11.40
2019,07,09,07,31,11.40
2019,07,09,07,32,11.40
2019,07,09,07,33,11.40
2019,07,09,07,34,11.40
2019,07,09,07,35,11.40
2019,07,09,07,36,11.40
2019,07,09,07,37,11.40
2019,07,09,07,38,11.40
2019,07,09,07,39,11.40
2019,07,09,07,40,11.50
2019,07,09,07,41,11.50
2019,07,09,07,42,11.60
2019,07,09,07,43,11.60
2019,07,09,07,44,11.60
2019,07,09,07,45,11.70
2019,07,09,07,46,11.70
2019,07,09,07,47,11.70
2019,07,09,07,48,11.70
2019,07,09,07,49,11.70
2019,07,09,07,50,11.80
2019,07,09,07,51,11.80
2019,07,09,07,52,11.80
2019,07,09,07,53,11.80
2019,07,09,07,54,11.90
2019,07,09,07,55,11.90
2019,07,09,07,56,12.00
2019,07,09,07,57,12.10
2019,07,09,07,58,12.30
2019,07,09,07,59,12.40
2019,07,09,08,00,12.50
2019,07,09,08,01,12.50
2019,07,09,08,02,12.60
2019,07,09,08,03,12.70
2019,07,09,08,04,12.90
2019,07,09,08,05,13.00
2019,07,09,08,06,13.10
2019,07,09,08,07,13.20
2019,07,09,08,08,13.30
2019,07,09,08,09,13.40
2019,07,09,08,10,13.50
2019,07,09,08,11,13.70
2019,07,09,08,12,13.80
2019,07,09,08,13,13.90
2019,07,09,08,14,14.00
2019,07,09,08,15,14.00
2019,07,09,08,16,14.10
2019,07,09,08,17,14.30
2019,07,09,08,18,14.40
2019,07,09,08,19,14.50
2019,07,09,08,20,14.60
2019,07,09,08,21,14.70
2019,07,09,08,22,14.80
2019,07,09,08,23,15.00
2019,07,09,08,24,15.10
2019,07,09,08,25,15.10
2019,07,09,08,26,15.20
2019,07,09,08,27,15.30
2019,07,09,08,28,15.40
2019,07,09,08,29,15.50
2019,07,09,08,30,15.50
2019,07,09,08,31,15.60
2019,07,09,08,32,15.60
2019,07,09,08,33,15.70
2019,07,09,08,34,15.70
2019,07,09,08,35,15.70
2019,07,09,08,36,15.80
2019,07,09,08,37,15.80
2019,07,09,08,38,15.80
2019,07,09,08,39,15.80
2019,07,09,08,40,15.90
2019,07,09,08,41,15.90
2019,07,09,08,42,16.00
2019,07,09,08,43,16.00
2019,07,09,08,44,16.10
2019,07,09,08,45,16.20
2019,07,09,08,46,16.20
2019,07,09,08,47,16.20
2019,07,09,08,48,16.30
2019,07,09,08,49,16.30
2019,07,09,08,50,16.30
2019,07,09,08,51,16.30
2019,07,09,08,52,16.30
2019,07,09,08,53,16.30
2019,07,09,08,54,16.30
2019,07,09,08,55,16.30
2019,07,09,08,56,16.30
2019,07,09,08,57,16.30
2019,07,09,08,58,16.30
2019,07,09,08,59,16.30
2019,07,09,09,00,16.20
2019,07,09,09,01,16.20
2019,07,09,09,02,16.20
2019,07,09,09,03,16.20
2019,07,09,09,04,16.20
2019,07,09,09,05,16.10
2019,07,09,09,06,16.10
2019,07,09,09,07,16.10
2019,07,09,09,08,16.10
2019,07,09,09,09,16.10
2019,07,09,09,10,16.10
2019,07,09,09,11,16.10
2019,07,09,09,12,16.10
2019,07,09,09,13,16.10
2019,07,09,09,14,16.10
2019,07,09,09,15,16.10
2019,07,09,09,16,16.10
2019,07,09,09,17,16.10
2019,07,09,09,18,16.10
2019,07,09,09,19,16.10
2019,07,09,09,20,16.10
2019,07,09,09,21,16.10
2019,07,09,09,22,16.10
2019,07,09,09,23,16.10
2019,07,09,09,24,16.10
2019,07,09,09,25,16.10
2019,07,09,09,26,16.10
2019,07,09,09,27,16.10
2019,07,09,09,28,16.10
2019,07,09,09,29,16.10
2019,07,09,09,30,16.10
2019,07,09,09,31,16.10
2019,07,09,09,32,16.10
2019,07,09,09,33,16.10
2019,07,09,09,34,16.10
2019,07,09,09,35,16.10
2019,07,09,09,36,16.10
2019,07,09,09,37,16.10
2019,07,09,09,38,16.10
2019,07,09,09,39,16.10
2019,07,09,09,40,16.10
2019,07,09,09,41,16.10
2019,07,09,09,42,16.10
2019,07,09,09,43,16.10
2019,07,09,09,44,16.10
2019,07,09,09,45,16.10
2019,07,09,09,46,16.20
2019,07,09,09,47,16.20
2019,07,09,09,48,16.20
2019,07,09,09,49,16.20
2019,07,09,09,50,16.30
2019,07,09,09,51,16.30
2019,07,09,09,52,16.40
2019,07,09,09,53,16.40
2019,07,09,09,54,16.40
2019,07,09,09,55,16.50
2019,07,09,09,56,16.60
2019,07,09,09,57,16.60
2019,07,09,09,58,16.70
2019,07,09,09,59,16.70
2019,07,09,10,00,16.80
2019,07,09,10,01,16.80
2019,07,09,10,02,16.90
2019,07,09,10,03,16.90
2019,07,09,10,04,17.00
2019,07,09,10,05,17.10
2019,07,09,10,06,17.10
2019,07,09,10,07,17.10
2019,07,09,10,08,17.20
2019,07,09,10,09,17.20
2019,07,09,10,10,17.30
2019,07,09,10,11,17.30
2019,07,09,10,12,17.40
2019,07,09,10,13,17.40
2019,07,09,10,14,17.50
2019,07,09,10,15,17.50
2019,07,09,10,16,17.60
2019,07,09,10,17,17.60
2019,07,09,10,18,17.60
2019,07,09,10,19,17.60
2019,07,09,10,20,17.70
2019,07,09,10,21,17.70
2019,07,09,10,22,17.70
2019,07,09,10,23,17.80
2019,07,09,10,24,17.80
2019,07,09,10,25,17.90
2019,07,09,10,26,17.90
2019,07,09,10,27,18.00
2019,07,09,10,28,18.00
2019,07,09,10,29,18.00
2019,07,09,10,30,18.10
2019,07,09,10,31,18.20
2019,07,09,10,32,18.20
2019,07,09,10,33,18.30
2019,07,09,10,34,18.40
2019,07,09,10,35,18.50
2019,07,09,10,36,18.50
2019,07,09,10,37,18.60
2019,07,09,10,38,18.60
2019,07,09,10,39,18.70
2019,07,09,10,40,18.80
2019,07,09,10,41,18.80
2019,07,09,10,42,18.80
2019,07,09,10,43,18.90
2019,07,09,10,44,19.00
2019,07,09,10,45,19.00
2019,07,09,10,46,19.10
2019,07,09,10,47,19.20
2019,07,09,10,48,19.30
2019,07,09,10,49,19.30
2019,07,09,10,50,19.40
2019,07,09,10,51,19.40
2019,07,09,10,52,19.50
2019,07,09,10,53,19.60
2019,07,09,10,54,19.70
2019,07,09,10,55,19.70
2019,07,09,10,56,19.80
2019,07,09,10,57,19.80
2019,07,09,10,58,19.80
2019,07,09,10,59,19.90
2019,07,09,11,00,19.90
2019,07,09,11,01,20.00
2019,07,09,11,02,20.00
2019,07,09,11,03,20.10
2019,07,09,11,04,20.20
2019,07,09,11,05,20.30
2019,07,09,11,06,20.30
2019,07,09,11,07,20.40
2019,07,09,11,08,20.50
2019,07,09,11,09,20.50
2019,07,09,11,10,20.60
2019,07,09,11,11,20.70
2019,07,09,11,12,20.70
2019,07,09,11,13,20.80
2019,07,09,11,14,20.90
2019,07,09,11,15,21.00
2019,07,09,11,16,21.00
2019,07,09,11,17,21.10
2019,07,09,11,18,21.20
2019,07,09,11,19,21.30
2019,07,09,11,20,21.30
2019,07,09,11,21,21.40
2019,07,09,11,22,21.50
2019,07,09,11,23,21.60
2019,07,09,11,24,21.70
2019,07,09,11,25,21.80
2019,07,09,11,26,21.80
2019,07,09,11,27,21.90
2019,07,09,11,28,21.90
2019,07,09,11,29,21.90
2019,07,09,11,30,21.90
2019,07,09,11,31,21.90
2019,07,09,11,32,22.00
2019,07,09,11,33,22.00
2019,07,09,11,34,22.10
2019,07,09,11,35,22.10
2019,07,09,11,36,22.20
2019,07,09,11,37,22.30
2019,07,09,11,38,22.30
2019,07,09,11,39,22.40
2019,07,09,11,40,22.50
2019,07,09,11,41,22.60
2019,07,09,11,42,22.70
2019,07,09,11,43,22.80
2019,07,09,11,44,22.80
2019,07,09,11,45,22.90
2019,07,09,11,46,22.90
2019,07,09,11,47,22.90
2019,07,09,11,48,22.90
2019,07,09,11,49,22.90
2019,07,09,11,50,23.00
2019,07,09,11,51,23.00
2019,07,09,11,52,23.10
2019,07,09,11,53,23.10
2019,07,09,11,54,23.20
2019,07,09,11,55,23.20
2019,07,09,11,56,23.30
2019,07,09,11,57,23.30
2019,07,09,11,58,23.40
2019,07,09,11,59,23.40
2019,07,09,12,00,23.50
2019,07,09,12,01,23.50
2019,07,09,12,02,23.60
2019,07,09,12,03,23.70
2019,07,09,12,04,23.70
2019,07,09,12,05,23.80
2019,07,09,12,06,23.80
2019,07,09,12,07,23.90
2019,07,09,12,08,23.90
2019,07,09,12,09,23.90
2019,07,09,12,10,23.90
2019,07,09,12,11,23.90
2019,07,09,12,12,23.90
2019,07,09,12,13,23.90
2019,07,09,12,14,23.90
2019,07,09,12,15,24.00
2019,07,09,12,16,24.00
2019,07,09,12,17,24.00
2019,07,09,12,18,24.00
2019,07,09,12,19,24.00
2019,07,09,12,20,24.00
2019,07,09,12,21,24.10
2019,07,09,12,22,24.00
2019,07,09,12,23,23.90
2019,07,09,12,24,23.90
2019,07,09,12,25,23.80
2019,07,09,12,26,23.80
2019,07,09,12,27,23.80
2019,07,09,12,28,23.80
2019,07,09,12,29,23.80
2019,07,09,12,30,23.90
2019,07,09,12,31,23.90
2019,07,09,12,32,23.90
2019,07,09,12,33,23.80
2019,07,09,12,34,23.80
2019,07,09,12,35,23.80
2019,07,09,12,36,23.80
2019,07,09,12,37,23.80
2019,07,09,12,38,23.80
2019,07,09,12,39,23.80
2019,07,09,12,40,23.80
2019,07,09,12,41,23.90
2019,07,09,12,42,23.90
2019,07,09,12,43,23.90
2019,07,09,12,44,23.90
2019,07,09,12,45,23.90
2019,07,09,12,46,23.90
2019,07,09,12,47,23.80
2019,07,09,12,48,23.90
2019,07,09,12,49,23.90
2019,07,09,12,50,23.90
2019,07,09,12,51,23.90
2019,07,09,12,52,23.90
2019,07,09,12,53,23.90
2019,07,09,12,54,23.90
2019,07,09,12,55,24.00
2019,07,09,12,56,24.00
2019,07,09,12,57,24.10
2019,07,09,12,58,24.10
2019,07,09,12,59,24.20
2019,07,09,13,00,24.20
2019,07,09,13,01,24.20
2019,07,09,13,02,24.20
2019,07,09,13,03,24.30
2019,07,09,13,04,24.30
2019,07,09,13,05,24.40
2019,07,09,13,06,24.40
2019,07,09,13,07,24.50
2019,07,09,13,08,24.60
2019,07,09,13,09,24.60
2019,07,09,13,10,24.70
2019,07,09,13,11,24.70
2019,07,09,13,12,24.70
2019,07,09,13,13,24.70
2019,07,09,13,14,24.80
2019,07,09,13,15,24.80
2019,07,09,13,16,24.80
2019,07,09,13,17,24.80
2019,07,09,13,18,24.80
2019,07,09,13,19,24.90
2019,07,09,13,20,24.90
2019,07,09,13,21,24.90
2019,07,09,13,22,25.00
2019,07,09,13,23,25.00
2019,07,09,13,24,25.10
2019,07,09,13,25,25.10
2019,07,09,13,26,25.20
2019,07,09,13,27,25.20
2019,07,09,13,28,25.30
2019,07,09,13,29,25.30
2019,07,09,13,30,25.30
2019,07,09,13,31,25.30
2019,07,09,13,32,25.30
2019,07,09,13,33,25.40
2019,07,09,13,34,25.40
2019,07,09,13,35,25.50
2019,07,09,13,36,25.50
2019,07,09,13,37,25.50
2019,07,09,13,38,25.50
2019,07,09,13,39,25.60
2019,07,09,13,40,25.60
2019,07,09,13,41,25.60
2019,07,09,13,42,25.60
2019,07,09,13,43,25.60
2019,07,09,13,44,25.60
2019,07,09,13,45,25.60
2019,07,09,13,46,25.60
2019,07,09,13,47,25.60
2019,07,09,13,48,25.60
2019,07,09,13,49,25.60
2019,07,09,13,50,25.60
2019,07,09,13,51,25.50
2019,07,09,13,52,25.40
2019,07,09,13,53,25.40
2019,07,09,13,54,25.40
2019,07,09,13,55,25.50
2019,07,09,13,56,25.50
2019,07,09,13,57,25.50
2019,07,09,13,58,25.50
2019,07,09,13,59,25.50
2019,07,09,14,00,25.50
2019,07,09,14,01,25.50
2019,07,09,14,02,25.50
2019,07,09,14,03,25.50
2019,07,09,14,04,25.50
2019,07,09,14,05,25.60
2019,07,09,14,06,25.60
2019,07,09,14,07,25.70
2019,07,09,14,08,25.70
2019,07,09,14,09,25.70
2019,07,09,14,10,25.70
2019,07,09,14,11,25.80
2019,07,09,14,12,25.80
2019,07,09,14,13,25.90
2019,07,09,14,14,26.00
2019,07,09,14,15,26.10
2019,07,09,14,16,26.10
2019,07,09,14,17,26.20
2019,07,09,14,18,26.30
2019,07,09,14,19,26.30
2019,07,09,14,20,26.20
2019,07,09,14,21,26.20
2019,07,09,14,22,26.20
2019,07,09,14,23,26.20
2019,07,09,14,24,26.20
2019,07,09,14,25,26.20
2019,07,09,14,26,26.30
2019,07,09,14,27,26.30
2019,07,09,14,28,26.20
2019,07,09,14,29,26.20
2019,07,09,14,30,26.30
2019,07,09,14,31,26.30
2019,07,09,14,32,26.40
2019,07,09,14,33,26.40
2019,07,09,14,34,26.50
2019,07,09,14,35,26.50
2019,07,09,14,36,26.60
2019,07,09,14,37,26.60
2019,07,09,14,38,26.60
2019,07,09,14,39,26.70
2019,07,09,14,40,26.70
2019,07,09,14,41,26.80
2019,07,09,14,42,26.80
2019,07,09,14,43,26.70
2019,07,09,14,44,26.70
2019,07,09,14,45,26.70
2019,07,09,14,46,26.60
2019,07,09,14,47,26.60
2019,07,09,14,48,26.60
2019,07,09,14,49,26.60
2019,07,09,14,50,26.60
2019,07,09,14,51,26.60
2019,07,09,14,52,26.60
2019,07,09,14,53,26.70
2019,07,09,14,54,26.70
2019,07,09,14,55,26.70
2019,07,09,14,56,26.80
2019,07,09,14,57,26.80
2019,07,09,14,58,26.90
2019,07,09,14,59,26.90
2019,07,09,15,00,27.00
2019,07,09,15,01,27.00
2019,07,09,15,02,27.00
2019,07,09,15,03,27.00
2019,07,09,15,04,27.00
2019,07,09,15,05,27.10
2019,07,09,15,06,27.20
2019,07,09,15,07,27.20
2019,07,09,15,08,27.20
2019,07,09,15,09,27.30
2019,07,09,15,10,27.30
2019,07,09,15,11,27.30
2019,07,09,15,12,27.40
2019,07,09,15,13,27.40
2019,07,09,15,14,27.30
2019,07,09,15,15,27.30
2019,07,09,15,16,27.30
2019,07,09,15,17,27.30
2019,07,09,15,18,27.40
2019,07,09,15,19,27.40
2019,07,09,15,20,27.50
2019,07,09,15,21,27.60
2019,07,09,15,22,27.60
2019,07,09,15,23,27.60
2019,07,09,15,24,27.60
2019,07,09,15,25,27.60
2019,07,09,15,26,27.60
2019,07,09,15,27,27.60
2019,07,09,15,28,27.50
2019,07,09,15,29,27.40
2019,07,09,15,30,27.30
2019,07,09,15,31,27.30
2019,07,09,15,32,27.20
2019,07,09,15,33,27.20
2019,07,09,15,34,27.30
2019,07,09,15,35,27.30
2019,07,09,15,36,27.40
2019,07,09,15,37,27.50
2019,07,09,15,38,27.50
2019,07,09,15,39,27.60
2019,07,09,15,40,27.70
2019,07,09,15,41,27.70
2019,07,09,15,42,27.80
2019,07,09,15,43,27.80
2019,07,09,15,44,27.70
2019,07,09,15,45,27.70
2019,07,09,15,46,27.70
2019,07,09,15,47,27.70
2019,07,09,15,48,27.70
2019,07,09,15,49,27.80
2019,07,09,15,50,27.80
2019,07,09,15,51,27.80
2019,07,09,15,52,27.80
2019,07,09,15,53,27.70
2019,07,09,15,54,27.70
2019,07,09,15,55,27.70
2019,07,09,15,56,27.70
2019,07,09,15,57,27.70
2019,07,09,15,58,27.60
2019,07,09,15,59,27.60
2019,07,09,16,00,27.60
2019,07,09,16,01,27.60
2019,07,09,16,02,27.60
2019,07,09,16,03,27.60
2019,07,09,16,04,27.60
2019,07,09,16,05,27.60
2019,07,09,16,06,27.60
2019,07,09,16,07,27.60
2019,07,09,16,08,27.60
2019,07,09,16,09,27.60
2019,07,09,16,10,27.60
2019,07,09,16,11,27.70
2019,07,09,16,12,27.70
2019,07,09,16,13,27.70
2019,07,09,16,14,27.70
2019,07,09,16,15,27.70
2019,07,09,16,16,27.80
2019,07,09,16,17,27.80
2019,07,09,16,18,27.90
2019,07,09,16,19,27.90
2019,07,09,16,20,27.90
2019,07,09,16,21,27.80
2019,07,09,16,22,27.80
2019,07,09,16,23,27.70
2019,07,09,16,24,27.60
2019,07,09,16,25,27.60
2019,07,09,16,26,27.60
2019,07,09,16,27,27.60
2019,07,09,16,28,27.60
2019,07,09,16,29,27.60
2019,07,09,16,30,27.70
2019,07,09,16,31,27.70
2019,07,09,16,32,27.70
2019,07,09,16,33,27.70
2019,07,09,16,34,27.80
2019,07,09,16,35,27.80
2019,07,09,16,36,27.80
2019,07,09,16,37,27.80
2019,07,09,16,38,27.90
2019,07,09,16,39,27.90
2019,07,09,16,40,27.90
2019,07,09,16,41,27.90
2019,07,09,16,42,28.00
2019,07,09,16,43,28.00
2019,07,09,16,44,28.10
2019,07,09,16,45,28.10
2019,07,09,16,46,28.10
2019,07,09,16,47,28.10
2019,07,09,16,48,28.10
2019,07,09,16,49,28.20
2019,07,09,16,50,28.20
2019,07,09,16,51,28.20
2019,07,09,16,52,28.30
2019,07,09,16,53,28.30
2019,07,09,16,54,28.30
2019,07,09,16,55,28.30
2019,07,09,16,56,28.30
2019,07,09,16,57,28.30
2019,07,09,16,58,28.30
2019,07,09,16,59,28.30
2019,07,09,17,00,28.30
2019,07,09,17,01,28.30
2019,07,09,17,02,28.30
2019,07,09,17,03,28.30
2019,07,09,17,04,28.30
2019,07,09,17,05,28.30
2019,07,09,17,06,28.30
2019,07,09,17,07,28.30
2019,07,09,17,08,28.30
2019,07,09,17,09,28.30
2019,07,09,17,10,28.30
2019,07,09,17,11,28.30
2019,07,09,17,12,28.30
2019,07,09,17,13,28.30
2019,07,09,17,14,28.30
2019,07,09,17,15,28.30
2019,07,09,17,16,28.30
2019,07,09,17,17,28.30
2019,07,09,17,18,28.30
2019,07,09,17,19,28.30